Location: East Irvine
(33.6759°N, 117.7598°W)
Time: 01:13:21
(UTC+00:00)

Cosmos 2369 Rocket - Pass Details

Date: 15 November 2025
Orbit: 826 x 853 km, 71.0° (Epoch: 07 December)

Event Time Altitude Azimuth Distance (km) Brightness Sun altitude
Rises 03:12:42 0° 189° (S) 3,348 5.5 -30.0°
Reaches altitude 10° 03:15:08 10° 185° (S) 2,420 4.6 -30.5°
Enters shadow 03:16:02 15° 183° (S) 2,091 4.3 -30.7°
